Location: Borojevi?i
(45.0486°N, 16.2297°E)
Time: 15:53:32
(UTC+00:00)

NOSS 3-2 (C) - Pass Details

Date: 08 August 2020
Orbit: 800 x 1413 km, 63.4° (Epoch: 15 September)

Event Time Altitude Azimuth Distance (km) Brightness Sun altitude
Exits shadow 21:35:52 30° 233° (SW) 1,537 4.4 -26.2°
Maximum altitude 21:38:53 71° 311° (NW) 973 3.5 -26.4°
Drops below altitude 10° 21:45:26 10° 36° (NE) 2,833 6.3 -26.8°
Sets 21:48:17 0° 38° (NE) 3,887 7.1 -27.0°
